Location: Gandikunta
(16.3784°N, 80.8378°E)
Time: 17:08:25
(UTC+00:00)

CZ-4 R/B - Pass Details

Date: 19 May 2025
Orbit: 499 x 550 km, 97.6° (Epoch: 13 June)

Event Time Altitude Azimuth Distance (km) Brightness Sun altitude
Exits shadow 13:58:08 20° 98° (E) 1,304 2.6 -13.3°
Maximum altitude 13:59:09 22° 76° (ENE) 1,226 2.7 -13.6°
Drops below altitude 10° 14:02:14 10° 24° (NNE) 1,825 4.0 -14.2°
Sets 14:04:42 0° 9° (N) 2,717 5.1 -14.8°
